Regional Weather Roundup
Issued by NWS

Home | Current Version | Previous Version | Text Only | Print | Product List | Glossary Off
Versions: 1 2 3 4 5 6 7 8 9 10 11 12 13 14 15 16 17 18 19 20 21 22 23 24 25 26 27 28 29 30 31 32 33 34 35 36 37 38 39 40 41 42 43 44 45 46 47 48 49 50

000
ASUS43 KLMK 301202
RWRKY
KENTUCKY REGIONAL WEATHER ROUNDUP
NATIONAL WEATHER SERVICE LOUISVILLE KY
800 AM EDT SAT APR 30 2016

NOTE "FAIR" INDICATES FEW OR NO CLOUDS BELOW 12,000 FEET
WITH NO SIGNIFICANT WEATHER AND/OR OBSTRUCTIONS TO VISIBILITY.

KYZ001>023-026-027-061>063-070>075-301300-
WESTERN AND SOUTH CENTRAL KENTUCKY

CITY           SKY/WX    TMP DP  RH WIND       PRES   REMARKS
PADUCAH        RAIN      61  59  93 E9        29.85F FOG
HENDERSON      CLOUDY    59  54  82 E6        29.91S
OWENSBORO      LGT RAIN  60  58  93 SE6       29.95R FOG
HOPKINSVILLE   CLOUDY    61  61 100 E8        29.89F
BOWLING GREEN  RAIN      62  58  86 W3        29.96R FOG
GLASGOW        NOT AVBL
$$

KYZ024-025-028>034-038-045-046-053-301300-
NORTH CENTRAL KENTUCKY

CITY           SKY/WX    TMP DP  RH WIND       PRES   REMARKS
LOUISVILLE/SDF CLOUDY    61  52  72 E7        29.95S
LOUISVILLE/LOU CLOUDY    60  51  72 NE6       29.95F
FORT KNOX      NOT AVBL
$$

KYZ035>037-039>044-047>052-055>060-089>105-301300-
NORTHEAST KENTUCKY

CITY           SKY/WX    TMP DP  RH WIND       PRES   REMARKS
LEXINGTON      CLOUDY    59  51  75 E10       29.97F
COVINGTON      CLOUDY    53  49  86 E12       30.01F
FRANKFORT      CLOUDY    59  50  72 E9        29.95F
$$

KYZ054-064>069-076>088-106>120-301300-
SOUTHEAST KENTUCKY

CITY           SKY/WX    TMP DP  RH WIND       PRES   REMARKS
JACKSON        CLOUDY    57  51  80 CALM      30.00S
LONDON         CLOUDY    61  51  70 E6        29.97F
SOMERSET       NOT AVBL
MIDDLESBORO    CLOUDY    58  55  91 CALM      29.98F
MONTICELLO     PTSUNNY   62  55  77 N12       29.95F
$$





USA.gov is the U.S. government's official web portal to all federal, state and local government web resources and services.